This demonstration page uses our WeatherBlox Daily Observations layout. Learn more.

Left ArrowRight Arrow

39.12711, -84.51439

Hourly Observations for April 13, 2018

Temp ( °F °C ) Dew Point ( °F °C ) Humidity (%) Winds ( mph kmh ) Pressure ( in mb ) Visibility ( mi km ) Precip ( " mm )
12:53 am 00:53 Clear 70 21.1 43 6.1 38 38 SSW 17 28 29.78 1009 10 16 0.00 0.00
1:53 am 01:53 Clear 69 20.6 42 5.6 38 38 SSW 18 30 29.80 1009 10 16 0.00 0.00
2:53 am 02:53 Clear 68 20 43 6.1 40 40 SSW 16 26 29.80 1009 10 16 0.00 0.00
3:53 am 03:53 Clear 67 19.4 43 6.1 42 42 SSW 17 28 29.80 1009 10 16 0.00 0.00
4:53 am 04:53 Clear 67 19.4 44 6.7 44 44 SSW 18 30 29.82 1010 10 16 0.00 0.00
5:53 am 05:53 Clear 64 17.8 45 7.2 50 50 SSW 14 22 29.83 1010 10 16 0.00 0.00
6:53 am 06:53 Clear 62 16.7 45 7.2 54 54 SSW 8 13 29.86 1011 10 16 0.00 0.00
7:53 am 07:53 Sunny 61 16.1 47 8.3 60 60 SSW 8 13 29.88 1012 10 16 0.00 0.00
8:53 am 08:53 Sunny 67 19.4 47 8.3 49 49 S 14 22 29.89 1012 10 16 0.00 0.00
9:53 am 09:53 Sunny 69 20.6 49 9.4 49 49 SSW 25 41 29.88 1012 10 16 0.00 0.00
10:53 am 10:53 Sunny 72 22.2 50 10 46 46 SSW 22 35 29.86 1011 10 16 0.00 0.00
11:53 am 11:53 Sunny 73 22.8 47 8.3 40 40 SW 26 43 29.85 1011 10 16 0.00 0.00
12:53 pm 12:53 Sunny 75 23.9 48 8.9 39 39 S 28 44 29.82 1010 10 16 0.00 0.00
1:53 pm 13:53 Sunny 78 25.6 48 8.9 35 35 SSW 21 33 29.81 1010 10 16 0.00 0.00
2:53 pm 14:53 Sunny 79 26.1 48 8.9 34 34 SSW 23 37 29.80 1009 10 16 0.00 0.00
3:53 pm 15:53 Sunny 80 26.7 49 9.4 34 34 S 21 33 29.80 1009 10 16 0.00 0.00
4:53 pm 16:53 Sunny 80 26.7 48 8.9 33 33 WSW 21 33 29.82 1010 10 16 0.00 0.00
5:53 pm 17:53 Sunny 77 25 48 8.9 36 36 WSW 15 24 29.83 1010 10 16 0.00 0.00
6:53 pm 18:53 Sunny 76 24.4 49 9.4 39 39 SSW 16 26 29.82 1010 10 16 0.00 0.00
7:53 pm 19:53 Sunny 75 23.9 49 9.4 40 40 SSW 10 17 29.83 1010 10 16 0.00 0.00
8:53 pm 20:53 Clear 68 20 48 8.9 49 49 SSW 6 9 29.84 1011 10 16 0.00 0.00
9:53 pm 21:53 Clear 62 16.7 52 11.1 70 70 Calm 29.86 1011 10 16 0.00 0.00
10:53 pm 22:53 Clear 62 16.7 51 10.6 67 67 Calm 29.86 1011 10 16 0.00 0.00
11:53 pm 23:53 Clear 58 14.4 52 11.1 81 81 Calm 29.85 1011 10 16 0.00 0.00

Powered by AerisWeather